Content
SEND FEEDBACK

Daily
Averages
Monthly
Summary
United States of America

ATLANTIC CITY, NEW JERSEY


Home > North America > United States > New Jersey
Elevation: 138 feet     Latitude: 39 27N     Longitude: 074 34W

WEATHER
 
SELECT A DAY
Number of Records: 206,318;   Date Range: 1/1/95 - 8/30/14
 
SHARE

PRINT THIS DATA

[ ← Previous Day ]
WEATHER ALMANAC - JANUARY 23, 2013
[ Next Day → ]
[ °C ]   °F
Weather ElementAverageHighLow
Temperature15.1 °F21.9 °F (12:54 pm)9 °F (9:54 pm)
Dewpoint-1.1 °F3 °F (7:54 pm)-5.1 °F (2:54 am)
Humidity50 %73 % (10:54 pm)35 % (1:54 pm)
Barometer30.26 in30.32 in (8:54 am)30.20 in (11:54 pm)
Wind Speed8 mph16.1 mph (11:54 am)
Wind Gust24.2 mph (9:54 am)
Weather ElementAverage
Visibility9.9 mi
Wind DirectionSW (224.3 °)

Weather ElementTotal
Precipitation---
Heating Degree Days49.6 (Base 65)
Averaged from 23 records on January 23, 2013
WEATHER CONDITIONS BREAKOUT
WIND DIRECTION BREAKOUT
WEATHER BY HOUR - JANUARY 23, 2013
[ °C ]   °F
Local TimeTemperatureDewpointHumidityBarometerVisibilityWind DirectionWind SpeedGust SpeedPrecipitationEventsConditions
1:54 AM12.0 °F-4.0 °F49 %30.28 in10.0 miWest (280°)6.9 mphClear
2:54 AM10.9 °F-5.1 °F49 %30.29 in10.0 miWest (270°)4.6 mphClear
3:54 AM12.0 °F-4.0 °F49 %30.28 in10.0 miWest (280°)9.2 mphClear
4:54 AM10.9 °F-4.0 °F51 %30.28 in10.0 miWest (270°)5.8 mphClear
5:54 AM10.9 °F-2.9 °F54 %30.29 in10.0 miWest (260°)5.8 mphClear
6:54 AM10.0 °F-2.0 °F58 %30.30 in10.0 miWSW (250°)4.6 mphClear
7:54 AM10.0 °F-0.9 °F61 %30.30 in10.0 miWest (260°)6.9 mphClear
8:54 AM14.0 °F0.0 °F54 %30.32 in10.0 miWNW (290°)11.5 mphClear
9:54 AM17.1 °F0.0 °F47 %30.32 in10.0 miWNW (300°)13.8 mph24.2 mphClear
10:54 AM19.9 °F-2.0 °F38 %30.30 in10.0 miWest (280°)15.0 mph21.9 mphClear
11:54 AM19.9 °F-2.9 °F37 %30.27 in10.0 miWest (280°)16.1 mph23.0 mphPartly Cloudy
12:54 PM21.9 °F-0.9 °F37 %30.22 in10.0 miNW (310°)16.1 mphScattered Clouds
1:54 PM21.9 °F-2.0 °F35 %30.21 in10.0 miWNW (300°)16.1 mphPartly Cloudy
2:54 PM21.9 °F-0.9 °F37 %30.21 in10.0 miWest (280°)15.0 mphScattered Clouds
3:54 PM19.9 °F-2.9 °F37 %30.22 in10.0 miWest (280°)11.5 mphScattered Clouds
4:54 PM19.0 °F-0.9 °F42 %30.23 in10.0 miNW (310°)8.1 mphMostly Cloudy
5:54 PM16.0 °F0.0 °F49 %30.24 in10.0 miNW (310°)6.9 mphClear
6:54 PM16.0 °F0.0 °F49 %30.25 in10.0 miCalmPartly Cloudy
7:54 PM16.0 °F3.0 °F57 %30.23 in10.0 miCalmOvercast
8:54 PM15.1 °F1.9 °F56 %30.22 in10.0 miCalmPartly Cloudy
9:54 PM9.0 °F0.0 °F67 %30.23 in10.0 miCalmClear
10:54 PM9.0 °F1.9 °F73 %30.21 in8.0 miNorth (10°)5.8 mphPartly Cloudy
11:54 PM12.9 °F3.0 °F65 %30.20 in10.0 miNNW (340°)3.5 mphOvercast
Hourly data recorded from KACY, located miles away from Atlantic City, New Jersey







STORIES FROM OUR PARTNERS